Content
SEND FEEDBACK

Daily
Averages
Monthly
Summary
Bulgaria

GALATA, BULGARIA


Home > Europe > Bulgaria
Elevation: 141 feet     Latitude: 43 12N     Longitude: 027 55E

WEATHER
 
SELECT A DAY
Number of Records: 294,115;   Date Range: 7/1/96 - 7/8/14
 
SHARE

PRINT THIS DATA

[ ← Previous Day ]
WEATHER ALMANAC - FEBRUARY 13, 2013
[ Next Day → ]
[ °C ]   °F
Weather ElementAverageHighLow
Temperature44.8 °F48.2 °F (1:00 pm)42.8 °F (12:30 am)
Dewpoint43 °F44.6 °F (8:00 am)41 °F (8:00 pm)
Humidity93.1 %100 % (12:30 am)81 % (2:00 pm)
Barometer30.10 in30.14 in (11:00 am)30.06 in (9:00 pm)
Wind Speed11.9 mph17.9 mph (3:00 pm)
Weather ElementAverage
Visibility6.1 mi
Wind DirectionESE (107.5 °)

Weather ElementTotal
Precipitation---
Heating Degree Days19.5 (Base 65)
Averaged from 56 records on February 13, 2013
WEATHER CONDITIONS BREAKOUT
WIND DIRECTION BREAKOUT
WEATHER BY HOUR - FEBRUARY 13, 2013
[ °C ]   °F
Local TimeTemperatureDewpointHumidityBarometerVisibilityWind DirectionWind SpeedGust SpeedPrecipitationEventsConditions
12:30 AM42.8 °F42.8 °F100 %30.09 in6.2 miSE (130°)8.9 mphMostly Cloudy
1:00 AM42.8 °F42.8 °F100 %30.09 in5.0 miSE (130°)6.7 mphMostly Cloudy
1:30 AM42.8 °F42.8 °F100 %30.09 in6.2 miSE (130°)6.7 mphMostly Cloudy
2:00 AM44.0 °F42.0 °F91 %30.13 in5.0 miEast (90°)6.7 mphMist
2:00 AM42.8 °F42.8 °F100 %30.09 in6.2 miESE (120°)8.9 mphMostly Cloudy
2:30 AM42.8 °F42.8 °F100 %30.09 in6.2 miESE (120°)8.9 mphMostly Cloudy
3:00 AM44.6 °F42.8 °F93 %30.09 in6.2 miESE (120°)8.9 mphMostly Cloudy
3:30 AM42.8 °F42.8 °F100 %30.09 in6.2 miSE (130°)8.9 mphMostly Cloudy
4:00 AM42.8 °F42.8 °F100 %30.09 in6.2 miESE (110°)8.9 mphMostly Cloudy
4:30 AM42.8 °F42.8 °F100 %30.09 in6.2 miSE (130°)8.9 mphMostly Cloudy
5:00 AM44.0 °F42.0 °F89 %30.12 in5.0 miEast (90°)6.7 mphMist
5:00 AM42.8 °F42.8 °F100 %30.09 in6.2 miSE (130°)8.9 mphMostly Cloudy
5:30 AM42.8 °F42.8 °F100 %30.09 in6.2 miESE (110°)13.4 mphMostly Cloudy
6:00 AM44.6 °F42.8 °F93 %30.09 in6.2 miSE (130°)13.4 mphMostly Cloudy
6:30 AM44.6 °F42.8 °F93 %30.09 in6.2 miSE (130°)11.2 mphOvercast
7:00 AM44.6 °F42.8 °F93 %30.09 in6.2 miESE (120°)11.2 mphMostly Cloudy
7:30 AM44.6 °F42.8 °F93 %30.09 in6.2 miESE (110°)8.9 mphMostly Cloudy
8:00 AM44.0 °F42.0 °F91 %30.12 in5.0 miENE (70°)4.5 mphMist
8:00 AM44.6 °F44.6 °F100 %30.09 in6.2 miEast (100°)11.2 mphMostly Cloudy
8:30 AM44.6 °F44.6 °F100 %30.09 in6.2 miESE (110°)11.2 mphMostly Cloudy
8:38 AM44.6 °F44.6 °F100 %30.09 in6.2 miESE (120°)11.2 mphMostly Cloudy
9:00 AM44.6 °F44.6 °F100 %30.09 in6.2 miESE (120°)11.2 mphMostly Cloudy
9:30 AM44.6 °F44.6 °F100 %30.12 in6.2 miESE (120°)8.9 mphMostly Cloudy
10:00 AM44.6 °F44.6 °F100 %30.12 in6.2 miESE (120°)11.2 mphOvercast
10:30 AM46.4 °F44.6 °F93 %30.12 in6.2 miESE (110°)13.4 mphMostly Cloudy
11:00 AM46.0 °F42.0 °F83 %30.14 in6.0 miESE (110°)4.5 mphOvercast
11:00 AM46.4 °F44.6 °F93 %30.12 in6.2 miESE (120°)13.4 mphOvercast
11:30 AM46.4 °F44.6 °F93 %30.12 in6.2 miESE (110°)13.4 mphOvercast
12:00 PM46.4 °F44.6 °F93 %30.12 in6.2 miESE (120°)13.4 mphMostly Cloudy
12:30 PM46.4 °F44.6 °F93 %30.09 in6.2 miESE (110°)15.7 mphMostly Cloudy
1:00 PM48.2 °F44.6 °F87 %30.09 in6.2 miESE (120°)15.7 mphMostly Cloudy
1:30 PM48.2 °F42.8 °F82 %30.09 in6.2 miESE (110°)15.7 mphMostly Cloudy
2:00 PM46.0 °F42.0 °F81 %30.12 in6.0 miENE (70°)8.9 mphOvercast
2:00 PM46.4 °F42.8 °F87 %30.09 in6.2 miESE (110°)15.7 mphMostly Cloudy
2:30 PM46.4 °F42.8 °F87 %30.09 in6.2 miEast (100°)15.7 mphMostly Cloudy
3:00 PM46.4 °F42.8 °F87 %30.09 in6.2 miEast (100°)17.9 mphMostly Cloudy
3:30 PM46.4 °F42.8 °F87 %30.09 in6.2 miEast (100°)17.9 mphMostly Cloudy
4:00 PM46.4 °F42.8 °F87 %30.09 in6.2 miEast (100°)15.7 mphMostly Cloudy
4:30 PM46.4 °F42.8 °F87 %30.09 in6.2 miEast (100°)17.9 mphMostly Cloudy
5:00 PM45.0 °F42.0 °F83 %30.12 in6.0 miENE (70°)8.9 mphOvercast
5:00 PM44.6 °F42.8 °F93 %30.09 in6.2 miEast (90°)15.7 mphOvercast
5:30 PM44.6 °F42.8 °F93 %30.09 in6.2 miEast (100°)15.7 mphOvercast
6:00 PM44.6 °F42.8 °F93 %30.09 in6.2 miEast (100°)15.7 mphOvercast
6:30 PM44.6 °F42.8 °F93 %30.09 in6.2 miEast (100°)13.4 mphOvercast
7:00 PM44.6 °F42.8 °F93 %30.09 in6.2 miEast (100°)11.2 mphOvercast
7:30 PM44.6 °F42.8 °F93 %30.09 in6.2 miEast (100°)13.4 mphOvercast
8:00 PM44.0 °F41.0 °F85 %30.12 in6.0 miEast (90°)8.9 mphOvercast
8:00 PM44.6 °F42.8 °F93 %30.09 in6.2 miEast (90°)15.7 mphOvercast
8:30 PM44.6 °F42.8 °F93 %30.09 in6.2 miEast (100°)13.4 mphOvercast
9:00 PM44.6 °F42.8 °F93 %30.06 in6.2 miEast (90°)17.9 mphOvercast
9:30 PM44.6 °F42.8 °F93 %30.09 in6.2 miESE (110°)15.7 mphOvercast
10:00 PM44.6 °F42.8 °F93 %30.09 in6.2 miESE (110°)13.4 mphOvercast
10:30 PM44.6 °F42.8 °F93 %30.09 in6.2 miEast (100°)13.4 mphOvercast
11:00 PM44.0 °F41.0 °F87 %30.12 in6.0 miEast (90°)8.9 mphOvercast
11:00 PM44.6 °F42.8 °F93 %30.09 in6.2 miEast (100°)13.4 mphOvercast
11:30 PM44.6 °F42.8 °F93 %30.09 in6.2 miEast (100°)11.2 mphOvercast
Hourly data recorded from LBWN, located miles away from Galata, Bulgaria







STORIES FROM OUR PARTNERS